TimeEDT,TemperatureF,Dew PointF,Humidity,Sea Level PressureIn,VisibilityMPH,Wind Direction,Wind SpeedMPH,Gust SpeedMPH,PrecipitationIn,Events,Conditions,WindDirDegrees,DateUTC
12:15 AM,51.3,-5.3,10,30.38,10.0,North,-9999.0,-,N/A,,Scattered Clouds,0,2014-04-18 04:15:00
12:35 AM,50.9,-6.3,9,30.38,10.0,North,-9999.0,-,N/A,,Clear,0,2014-04-18 04:35:00
12:55 AM,51.1,-9999,N/A,30.37,10.0,North,-9999.0,-,N/A,,Clear,0,2014-04-18 04:55:00
1:15 AM,51.1,-9999,N/A,30.38,10.0,North,-9999.0,-,N/A,,Clear,0,2014-04-18 05:15:00
1:35 AM,51.1,-9999,N/A,30.38,10.0,North,-9999.0,-,N/A,,Clear,0,2014-04-18 05:35:00
1:55 AM,50.9,-9999,N/A,30.38,10.0,North,-9999.0,-,N/A,,Clear,0,2014-04-18 05:55:00
2:15 AM,50.5,-9999,N/A,30.37,10.0,North,-9999.0,-,N/A,,Scattered Clouds,0,2014-04-18 06:15:00
2:35 AM,50.5,-9999,N/A,30.37,10.0,North,-9999.0,-,N/A,,Scattered Clouds,0,2014-04-18 06:35:00
2:55 AM,50.7,-9999,N/A,30.37,10.0,North,-9999.0,-,N/A,,Clear,0,2014-04-18 06:55:00
3:15 AM,49.8,-4.9,10,30.35,10.0,North,-9999.0,-,N/A,,Clear,0,2014-04-18 07:15:00
3:35 AM,50.4,-9999,N/A,30.34,10.0,North,-9999.0,-,N/A,,Clear,0,2014-04-18 07:35:00
3:55 AM,50.4,-9999,N/A,30.34,10.0,North,-9999.0,-,N/A,,Scattered Clouds,0,2014-04-18 07:55:00
4:15 AM,50.4,-9999,N/A,30.34,10.0,North,-9999.0,-,N/A,,Mostly Cloudy,0,2014-04-18 08:15:00
4:35 AM,50.9,-9999,N/A,30.33,10.0,North,-9999.0,-,N/A,,Scattered Clouds,0,2014-04-18 08:35:00
4:55 AM,50.9,-9999,N/A,30.33,10.0,North,-9999.0,-,N/A,,Clear,0,2014-04-18 08:55:00
5:15 AM,50.9,-9999,N/A,30.35,10.0,North,-9999.0,-,N/A,,Scattered Clouds,0,2014-04-18 09:15:00
5:35 AM,50.9,-7.4,9,30.35,10.0,North,-9999.0,-,N/A,,Mostly Cloudy,0,2014-04-18 09:35:00
5:55 AM,50.7,-6.7,9,30.34,10.0,North,-9999.0,-,N/A,,Scattered Clouds,0,2014-04-18 09:55:00
6:15 AM,50.2,-5.3,10,30.34,10.0,North,-9999.0,-,N/A,,Clear,0,2014-04-18 10:15:00
6:35 AM,50.2,-2.9,11,30.34,10.0,North,-9999.0,-,N/A,,Clear,0,2014-04-18 10:35:00
6:55 AM,50.2,-1.3,12,30.34,10.0,North,-9999.0,-,N/A,,Clear,0,2014-04-18 10:55:00
7:15 AM,50.0,-1.5,12,30.35,10.0,North,-9999.0,-,N/A,,Clear,0,2014-04-18 11:15:00
7:35 AM,50.0,-0.8,12,30.35,10.0,North,-9999.0,-,N/A,,Clear,0,2014-04-18 11:35:00
8:15 AM,49.6,1.9,14,30.36,10.0,North,-9999.0,-,N/A,,Scattered Clouds,0,2014-04-18 12:15:00
8:35 AM,50.0,3.4,15,30.37,10.0,North,-9999.0,-,N/A,,Scattered Clouds,0,2014-04-18 12:35:00
8:55 AM,50.4,4.8,16,30.38,10.0,North,-9999.0,-,N/A,,Mostly Cloudy,0,2014-04-18 12:55:00
9:15 AM,50.9,5.5,16,30.38,10.0,North,-9999.0,-,N/A,,Overcast,0,2014-04-18 13:15:00
9:35 AM,51.1,6.4,16,30.38,10.0,North,-9999.0,-,N/A,,Overcast,0,2014-04-18 13:35:00
10:15 AM,-9999,-9999,N/A,30.38,10.0,North,-9999.0,-,N/A,,Unknown,0,2014-04-18 14:15:00
10:35 AM,52.2,8.6,17,30.38,10.0,North,-9999.0,-,N/A,,Mostly Cloudy,0,2014-04-18 14:35:00
10:55 AM,52.5,9.0,17,30.38,10.0,North,-9999.0,-,N/A,,Overcast,0,2014-04-18 14:55:00
11:15 AM,52.9,8.8,17,30.36,10.0,North,-9999.0,-,N/A,,Scattered Clouds,0,2014-04-18 15:15:00
11:35 AM,53.1,7.5,16,30.37,10.0,North,-9999.0,-,N/A,,Clear,0,2014-04-18 15:35:00
11:55 AM,53.6,7.5,16,30.38,10.0,North,-9999.0,-,N/A,,Scattered Clouds,0,2014-04-18 15:55:00
12:15 PM,54.0,7.7,16,30.37,10.0,North,-9999.0,-,N/A,,Mostly Cloudy,0,2014-04-18 16:15:00
12:35 PM,54.7,8.6,16,30.35,10.0,North,-9999.0,-,N/A,,Overcast,0,2014-04-18 16:35:00
12:55 PM,55.2,8.1,15,30.34,10.0,North,-9999.0,-,N/A,,Mostly Cloudy,0,2014-04-18 16:55:00
1:15 PM,56.1,6.6,14,30.33,10.0,North,-9999.0,-,N/A,,Mostly Cloudy,0,2014-04-18 17:15:00
1:35 PM,56.3,5.0,13,30.32,10.0,North,-9999.0,-,N/A,,Mostly Cloudy,0,2014-04-18 17:35:00
2:15 PM,57.2,2.5,11,30.29,10.0,North,-9999.0,-,N/A,,Mostly Cloudy,0,2014-04-18 18:15:00
2:35 PM,57.2,2.3,11,30.28,10.0,North,-9999.0,-,N/A,,Mostly Cloudy,0,2014-04-18 18:35:00
2:55 PM,57.0,2.3,11,30.27,10.0,North,-9999.0,-,N/A,,Mostly Cloudy,0,2014-04-18 18:55:00
3:15 PM,57.2,2.8,11,30.26,10.0,North,-9999.0,-,N/A,,Overcast,0,2014-04-18 19:15:00
3:35 PM,57.2,1.9,11,30.25,10.0,North,-9999.0,-,N/A,,Overcast,0,2014-04-18 19:35:00
3:55 PM,56.5,3.6,12,30.24,10.0,North,-9999.0,-,N/A,Rain,Light Rain,0,2014-04-18 19:55:00
4:15 PM,55.8,7.7,15,30.23,10.0,North,-9999.0,-,N/A,,Light Drizzle,0,2014-04-18 20:15:00
4:35 PM,55.0,10.0,17,30.23,10.0,North,-9999.0,-,N/A,Rain,Rain,0,2014-04-18 20:35:00
4:55 PM,54.1,12.9,19,30.23,10.0,North,-9999.0,-,N/A,Rain,Light Rain,0,2014-04-18 20:55:00
5:15 PM,53.4,15.6,22,30.23,10.0,North,-9999.0,-,N/A,Rain,Light Rain,0,2014-04-18 21:15:00
5:35 PM,52.5,19.0,27,30.23,10.0,North,-9999.0,-,N/A,Rain,Light Rain,0,2014-04-18 21:35:00
5:55 PM,51.8,21.0,30,30.23,10.0,North,-9999.0,-,N/A,Rain,Light Rain,0,2014-04-18 21:55:00
6:15 PM,50.5,22.5,33,30.23,7.0,North,-9999.0,-,N/A,Rain,Rain,0,2014-04-18 22:15:00
6:35 PM,49.5,22.6,35,30.23,7.0,North,-9999.0,-,N/A,Rain,Rain,0,2014-04-18 22:35:00
6:55 PM,48.9,23.2,36,30.22,7.0,North,-9999.0,-,N/A,Rain,Rain,0,2014-04-18 22:55:00
7:15 PM,48.6,21.6,35,30.21,7.0,North,-9999.0,-,N/A,Rain,Rain,0,2014-04-18 23:15:00
7:35 PM,48.4,23.4,37,30.21,7.0,North,-9999.0,-,N/A,Rain,Rain,0,2014-04-18 23:35:00
7:55 PM,48.2,25.2,41,30.21,7.0,North,-9999.0,-,N/A,Rain,Rain,0,2014-04-18 23:55:00
8:15 PM,48.4,24.8,40,30.20,7.0,North,-9999.0,-,N/A,Rain,Rain,0,2014-04-19 00:15:00
8:35 PM,48.2,25.7,42,30.19,7.0,North,-9999.0,-,N/A,Rain,Rain,0,2014-04-19 00:35:00
8:55 PM,48.2,26.4,43,30.18,7.0,North,-9999.0,-,N/A,Rain,Rain,0,2014-04-19 00:55:00
9:15 PM,48.4,26.8,43,30.18,7.0,North,-9999.0,-,N/A,Rain,Rain,0,2014-04-19 01:15:00
9:35 PM,48.4,27.1,44,30.18,7.0,North,-9999.0,-,N/A,Rain,Rain,0,2014-04-19 01:35:00
9:55 PM,48.4,27.0,43,30.18,7.0,North,-9999.0,-,N/A,Rain,Rain,0,2014-04-19 01:55:00
10:15 PM,48.4,26.8,43,30.17,10.0,North,-9999.0,-,N/A,Rain,Rain,0,2014-04-19 02:15:00
10:35 PM,48.4,27.7,45,30.16,7.0,North,-9999.0,-,N/A,Rain,Rain,0,2014-04-19 02:35:00
10:55 PM,48.2,27.5,45,30.16,10.0,North,-9999.0,-,N/A,Rain,Light Rain,0,2014-04-19 02:55:00
11:15 PM,48.4,27.5,44,30.16,10.0,North,-9999.0,-,N/A,Rain,Light Rain,0,2014-04-19 03:15:00
11:35 PM,48.6,27.3,44,30.15,10.0,North,-9999.0,-,N/A,Rain,Light Rain,0,2014-04-19 03:35:00